Вернуться в каталог

COSMOS 417

АктивенНавигацияLEO
NORAD 5216·PAYLOAD·🇷🇺 Russia

Запущен May 7, 1971 с Plesetsk Cosmodrome

Loading…

Ближайшие Пролёты (ближайшие 24 часа)

TLE

СвежийSource: Space-Track

Эпоха: Sep 14, 2026, 05:24 UTC

1 05216U 71041G   26257.22534390 -.00000004  00000-0  63810-4 0  9994
2 05216  74.0190 342.4318 0095061  60.6008 328.4879 12.61456372549009

Отслеживайте COSMOS 417 в реальном времени с AllMySat

Download on the App Store